www.pogodaiklimat.ru

Погода и климат >> Архив погоды >> Канада >> Hanbury River ARS


ПОГОДА в Hanbury River ARS

  • Прогноз погоды в Hanbury River ARS
  • Монитор погоды в Hanbury River ARS
  • Климат города

АРХИВ ПОГОДЫ в Hanbury River ARS

Время (UTC), дата Ветер
(напр.,м/с)
 
Видим.   Явления Облачность Т
(С)
Тd
(С)
f
(%)
Тe
(С)
Тes
(С)
Комфортность P
(гПа)
Po
(гПа)
Тmin
(С)
Tmax
(С)
R
(мм)
R24
(мм)
S
(см)
12 13.02 0 н/о н/о -32.5 -35.9 72 995.3 953.7 -32.5 -21.9 0.2 17
15 13.02 0 н/о н/о -36.5 -40.2 68 997.3 955.3
18 13.02 0 н/о н/о -37.5 -41.5 66 999.6 957.3 -37.8 -27.3
21 13.02 0 н/о н/о -37.1 -41.0 67 1002.8 960.2
00 14.02 0 н/о н/о -38.5 -42.3 67 1007.9 964.9 -38.5 -32.5
03 14.02 0 н/о н/о -40.0 -43.9 66 1012.2 968.6
06 14.02 0 н/о н/о -40.9 -44.8 66 1015.8 972.0 -40.9 -27.3
09 14.02 0 н/о н/о -41.8 -45.8 65 1018.9 974.9
12 14.02 0 н/о н/о -42.0 -46.0 65 1020.6 976.4 -42.3 -27.3 17
15 14.02 0 н/о н/о -41.0 -45.0 65 1019.5 975.3
18 14.02 0 н/о н/о -38.5 -42.6 65 1017.2 973.2 -42.3 -38.5
21 14.02 0 н/о н/о -36.4 -40.4 66 1014.8 971.0
00 15.02 0 н/о н/о -36.4 -40.2 68 1013.1 969.4 -42.3 -36.3
03 15.02 0 н/о н/о -35.6 -39.4 68 1012.0 968.4
06 15.02 0 н/о н/о -35.3 -39.0 69 1010.8 967.5 -42.3 -35.2
09 15.02 0 н/о н/о -33.9 -37.6 69 1009.4 966.3
12 15.02 0 н/о н/о -31.0 -34.4 72 1007.0 964.2 -36.5 -35.2 17
15 15.02 0 н/о н/о -29.1 -32.4 73 1005.4 962.8
18 15.02 0 н/о н/о -28.0 -31.3 73 1004.2 961.8 -38.5 -28.0
21 15.02 0 н/о н/о -26.5 -29.8 74 1004.6 962.3
00 16.02 0 н/о н/о -28.6 -31.8 74 1005.6 963.3 -35.3 -26.3
03 16.02 0 н/о н/о -30.9 -34.2 73 1006.2 963.9
06 16.02 0 н/о н/о -29.4 -32.7 73 1004.0 961.9 -35.3 -26.3
09 16.02 0 н/о н/о -29.0 -32.2 74 1000.8 958.9
12 16.02 0 н/о н/о -26.4 -29.5 75 998.9 957.1 -31.6 -26.3 17
15 16.02 0 н/о н/о -25.6 -28.6 76 997.9 956.1
18 16.02 0 н/о н/о -24.2 -27.2 76 997.8 956.2 -31.6 -24.0
21 16.02 0 н/о н/о -26.6 -29.8 74 999.5 957.7
00 17.02 0 н/о н/о -28.1 -31.2 75 1001.7 959.9 -29.9 -24.0
03 17.02 0 н/о н/о -29.7 -33.0 73 1003.6 961.6
06 17.02 0 н/о н/о -33.1 -36.5 71 1006.7 964.5 -33.1 -24.0
09 17.02 0 н/о н/о -37.9 -41.6 68 1010.0 967.3
12 17.02 0 н/о н/о -39.6 -43.5 66 1012.1 969.1 -39.7 -24.0 17
15 17.02 0 н/о н/о -41.1 -45.0 66 1013.3 970.0
18 17.02 0 н/о н/о -39.1 -43.2 65 1014.3 970.9 -41.1 -33.0
21 17.02 0 н/о н/о -37.6 -41.7 65 1016.3 972.6
00 18.02 0 н/о н/о -39.9 -43.8 66 1018.1 974.1 -41.1 -37.4
03 18.02 0 н/о н/о -41.6 -45.7 64 1019.4 975.1
06 18.02 0 н/о н/о -42.1 -46.1 65 1020.7 976.5 -42.5 -33.0
09 18.02 0 н/о н/о -43.3 -47.4 64 1022.0 977.7
12 18.02 0 н/о н/о -42.6 -46.8 63 1022.6 978.2 -43.8 -33.0 17
15 18.02 0 н/о н/о -41.9 -45.9 65 1021.6 977.2
18 18.02 0 н/о н/о -37.7 -41.8 65 1020.3 976.2 -43.8 -37.7
21 18.02 0 н/о н/о -35.1 -39.0 67 1018.7 974.7
00 19.02 0 н/о н/о -35.6 -39.4 68 1018.1 974.2 -43.8 -34.9
03 19.02 0 н/о н/о -33.9 -37.5 70 1017.2 973.5
06 19.02 0 н/о {осадки} н/о -36.4 -40.2 68 1016.5 972.9 -43.8 -33.7 0.2
09 19.02 0 н/о н/о -39.2 -43.1 66 1017.2 973.6
12 19.02 0 н/о н/о -40.7 -44.7 65 1019.1 975.2 -41.6 -33.7 17
15 19.02 0 н/о н/о -41.2 -45.2 65 1020.7 976.9
18 19.02 0 н/о н/о -37.9 -42.0 65 1022.9 979.0 -41.9 -36.4
21 19.02 0 н/о н/о -37.1 -41.2 65 1025.5 981.4
00 20.02 0 н/о н/о -38.7 -42.6 66 1027.6 983.2 -41.9 -36.1
03 20.02 0 н/о н/о -41.0 -45.1 64 1030.0 985.3
06 20.02 0 н/о н/о -42.0 -46.1 64 1031.0 986.4 -42.1 -36.1
09 20.02 0 н/о н/о -42.1 -46.2 64 1031.1 986.6

 

Местоположение метеостанции Hanbury River ARS (Канада): широта 63.58 долгота -105.15 высота над уровнем моря 317 м.

В архиве по умолчанию представлена погода в Hanbury River ARS за последнюю неделю. Архивные данные за месяц целиком и за предыдущие месяцы, начиная с января 2011 года, Вы можете получить, выбрав интересующий диапазон дат из раскрывающегося списка и нажав кнопку "Ввод!".

Внимание! Время в таблицах - всемирное. Для получения местного времени необходимо прибавить поправку, которая в Hanbury River ARS равна -7 ч.

Смотрите также архив погоды в соседних городах и на ближайших метеорологических станциях:

Погода в Dubawnt Lake (Канада) (176 км)
Погода в Robertson Lake (Канада) (215 км)
Погода в Fort Reliance (aut) (Канада) (221 км)
Погода в Porter Lake (Канада) (270 км)
Погода в Lustel Ke A (Канада) (304 км)
Погода в Lupin (Канада) (377 км)
Погода в Lupin (maps) (Канада) (377 км)
Погода в Baker Lake Airport (Канада) (451 км)
Погода в Baker Lake Climate (Канада) (454 км)
Погода в Inner Whalebacks (Канада) (472 км)

Пояснения к столбцам:

Ветер - указаны скорость ветра в м/с - средняя за 10 мин, порывы в срок и между сроками (в фигурных скобках) и направление, откуда дует ветер: С - северный, СВ - северо-восточный, В - восточный, ЮВ - юго-восточный, Ю - южный, ЮЗ - юго-западный, З - западный, СЗ - северо-западный.
Видимость - горизонтальная дальность видимости в метрах или километрах. При видимости от 1 до 10 км при отсутствии осадков обычно наблюдается дымка, при ухудшении видимости до 1 км и менее - туман. В сухую погоду видимость может ухудшаться дымом, пылью или мглою.
Явления - указаны атмосферные явления, наблюдавшиеся в срок или в последний час перед сроком; фигурными скобками обозначены явления, наблюдавшиеся между сроками (за 1-3 часа до срока); квадратными скобками обозначены град или гололедные отложения с указанием их диаметра в мм.
Облачность - указаны через наклонную черту общая и нижняя облачность в баллах и высота нижней границы облаков в метрах; квадратными скобками обозначены формы облаков: Ci - перистые, Cs - перисто-слоистые, Cc - перисто-кучевые, Ac - высококучевые, As - высокослоистые, Sc - слоисто-кучевые, Ns - слоисто-дождевые, Cu - кучевые, Cb - кучево-дождевые. Подробнее классификацию облаков см. в Атласе облаков (PDF).
T - Температура воздуха - температура, измеренная на высоте 2 м над землей.
Td - Температура точки росы - температура, при понижении до которой содержащийся в воздухе водяной пар достигнет насыщения.
f - Относительная влажность воздуха - влажноcть воздуха, измеренная на высоте 2 м над землей.
Te - Эффективная температура - температура, которую ощущает одетый по сезону человек в тени. Характеристика душности погоды. При расчете учитывается влияние влажности воздуха и скорости ветра на теплоощущения человека.
Tes - Эффективная температура на солнце - температура, которую ощущает человек, с поправкой на солнечный нагрев. Характеристика знойности погоды. Зависит от высоты солнца над горизонтом, облачности и скорости ветра. Ночью, в пасмурную погоду, а также при ветре 12 м/с и более поправка равна нулю.
P - Атмосферное давление - приведенное к уровню моря атмосферное давление.
Po - Атмосферное давление - измеренное на уровне метеостанции атмосферное давление.
Tmin - Минимальная температура - минимум температуры воздуха на высоте 2 м над землей.
Tmax - Максимальная температура - максимум температуры воздуха на высоте 2 м над землей.
R - Количество осадков - Количество выпавших осадков за период времени, мм. При наведении курсора мыши на число - период времени, за который выпало указанное количество осадков.
R24 - Количество осадков - Количество выпавших осадков за 24 часа, мм.
S - Снежный покров - Высота снежного покрова, см. При наведении курсора мыши на число - состояние снежного покрова и степень покрытия местности в баллах.